www.pogodaiklimat.ru

Погода и климат >> Архив погоды >> Россия >> Красноярский край >> Ирбейское


ПОГОДА в Ирбейском

  • Прогноз погоды в Ирбейском
  • Монитор погоды в Ирбейском

АРХИВ ПОГОДЫ в Ирбейском

Время (UTC), дата Ветер
(напр.,м/с)
 
Видим.   Явления Облачность Т
(С)
Тd
(С)
f
(%)
Тe
(С)
Тes
(С)
Комфортность P
(гПа)
Po
(гПа)
Тmin
(С)
Tmax
(С)
R
(мм)
R24
(мм)
S
(см)
03 19.04 З 10-16
{18}
20 км {ливн. осадки} 9/9 600 м
[Cb cap]
-4.0 -10.1 62 -13 -13 1020.8 988.8
06 19.04 З 10-18
{21}
20 км {ливн. осадки} 8/8 600 м
[Cb cap]
-0.4 -10.2 48 -8 -8 1022.5 990.9
09 19.04 З 8-13
{19}
20 км 9/9 600 м
[Cb cap]
+0.6 -13.7 33 -6 -6 1023.3 991.8
12 19.04 З 6-11
{16}
20 км 8/8 600 м
[Cb cap]
+1.1 -16.0 27 -4 -4 1022.9 991.4 +1.3 0.0
15 19.04 З 2
{11}
н/о 3/3 1000 м
[Sc]
-3.0 -13.4 45 -6 -6 1023.5 991.5
18 19.04 З 2 н/о ясно -5.4 -11.3 63 -9 -9 1022.6 990.4
21 19.04 В 1 н/о ясно -10.6 -13.0 82 -13 -13 1021.9 989.1
00 20.04 штиль 0 20 км 3/0
[Ci sp]
-5.9 -9.8 74 -7 -5 1019.9 987.7 -11.5
03 20.04 Ю 1 20 км 3/0
[Ci sp]
+2.0 -12.5 33 +1 +10 опасность
простуды
1017.1 985.9
06 20.04 З 2 20 км 4/0 2000 м
[Ac lent Ci sp]
+5.2 -16.0 20 +4 +13 опасность
простуды
1013.7 983.0
09 20.04 З 3 20 км 6/0 2000 м
[Ac lent Ci sp]
+6.8 -16.1 18 +5 +9 1011.2 980.7
12 20.04 СВ 1 20 км 8/3 1000 м
[Sc Ac lent Ci sp]
+5.8 -13.9 23 +6 +6 1010.0 979.4 +7.9
15 20.04 штиль 0 н/о 8/8 600 м
[Cb cap Ac lent]
-1.7 -11.0 49 -2 -2 1009.8 978.4
18 20.04 штиль 0 н/о 9/6 600 м
[Cb cap Ac lent Ci sp]
-3.8 -8.6 69 -5 -5 1008.9 977.3
21 20.04 штиль 0 н/о 8/3 1000 м
[Sc Ac lent Ci sp]
-6.4 -9.0 82 -7 -7 1008.2 976.4
00 21.04 штиль 0 20 км 9/4 1000 м
[Sc Ac lent Ci sp]
-3.3 -7.5 73 -4 -4 1007.9 976.4 -6.7
03 21.04 З 3 20 км 9/3 1000 м
[Sc Ci sp]
+4.9 -9.1 36 +2 +6 1007.2 976.7
06 21.04 З 4 20 км 9/4 600 м
[Cb cap Ci sp]
+6.1 -9.0 33 +3 +7 1007.7 977.3
09 21.04 З 6
{11}
20 км 9/6 600 м
[Cb cap Ac lent Ci sp]
+5.8 -8.1 36 +2 +2 1008.7 978.2
12 21.04 З 3-13
{13}
20 км 8/3 600 м
[Cb cap Ac lent Ci sp]
+5.4 -8.7 35 +3 +3 1009.7 979.2 +6.5
15 21.04 З 4
{16}
н/о в посл. час ливневой снег 10/10 600 м
[Cb cap]
+0.6 -2.5 80 -5 -5 1013.5 982.2
18 21.04 З 2 н/о {ливн. осадки} 8/8 600 м
[Cb cap Ac lent]
-0.9 -6.3 67 -4 -4 1016.6 985.2
21 21.04 З 2 н/о 6/3 1000 м
[Sc Ac lent]
-4.1 -6.7 82 -8 -8 1019.8 987.8
00 22.04 З 3 20 км 6/4 1000 м
[Sc Ac lent]
-3.0 -6.7 76 -8 -8 1022.0 990.1 -5.8 0.0
03 22.04 З 4 20 км 9/8 600 м
[Cb cap Ac lent]
-1.6 -10.0 53 -7 -6 1023.8 992.0
06 22.04 З 4
{10}
20 км 8/8 600 м
[Cu med, cong]
+1.4 -10.6 40 -3 -1 1023.8 992.3
09 22.04 З 3
{10}
20 км 3/3 600 м
[Cu med, cong]
+3.3 -11.7 32 0 +4 1023.6 992.4
12 22.04 СЗ 2 20 км ясно +2.9 -12.1 32 +1 +1 1023.9 992.6 +3.8
15 22.04 штиль 0 н/о ясно -4.8 -10.6 64 -5 -5 1026.0 993.7
18 22.04 СВ 1 н/о ясно -7.9 -10.7 80 -10 -10 1027.5 994.8
21 22.04 штиль 0 н/о ясно -9.7 -11.6 86 -10 -10 1027.9 995.0
00 23.04 штиль 0 20 км ясно -3.3 -8.1 69 -4 -2 1027.7 995.6 -10.1
03 23.04 ЮЗ 2 20 км ясно +5.3 -9.5 33 +4 +12 1026.0 994.9
06 23.04 В 2 20 км 3/3 600 м
[Cu med, cong]
+8.6 -10.6 24 +8 +16 1023.5 992.9
09 23.04 З 2 20 км 3/3 600 м
[Cu med, cong]
+11.0 -9.5 23 +10 +15 1021.2 990.9
12 23.04 СВ 1 20 км ясно +9.2 -9.6 25 +9 +10 1019.7 989.2 +11.4
15 23.04 штиль 0 н/о ясно -2.5 -8.5 63 -3 -3 1020.8 989.0
18 23.04 штиль 0 н/о ясно -4.8 -8.5 75 -6 -6 1020.0 988.0
21 23.04 штиль 0 н/о ясно -7.3 -9.8 82 -8 -8 1019.5 987.2
00 24.04 В 1 20 км ясно -2.5 -7.4 69 -4 -3 1018.4 986.7 -8.6
03 24.04 штиль 0 20 км 3/3 1000 м
[Sc]
+8.8 -8.4 29 +9 +17 1015.7 985.3
06 24.04 ЮЗ 4 20 км 6/6 600 м
[Cu med, cong]
+13.9 -9.3 19 +13 +16 1013.3 983.5
09 24.04 З 2 20 км 8/6 600 м
[Cu med, cong Ac lent Ci sp]
+14.4 -11.3 16 +14 +16 1012.4 982.6
12 24.04 З 1 20 км 9/8 600 м
[Cb cap Ac lent]
+12.3 -10.9 19 +13 +13 1012.8 982.9 +15.1
15 24.04 штиль 0 н/о 8/4 600 м
[Cb cap Ac lent Ci sp]
+0.8 -7.9 52 0 0 1015.1 983.8
18 24.04 СВ 1 н/о 6/3 1000 м
[Sc Ac lent]
-2.4 -7.4 68 -4 -4 1016.0 984.4
21 24.04 штиль 0 н/о 4/3 1000 м
[Sc Ac lent]
-5.7 -8.5 81 -7 -7 1016.5 984.5
00 25.04 штиль 0 20 км 8/4 1000 м
[Sc Ac trans]
-2.2 -6.4 73 -3 -2 1016.0 984.4 -6.8
03 25.04 Ю 1 20 км 3/0
[Ci sp]
+10.9 -5.8 30 +11 +21 опасность
простуды
1012.6 982.5
06 25.04 ЮЗ 3 20 км 3/1 600 м
[Cu med, cong Ci sp]
+15.0 -7.7 20 +15 +24 1009.0 979.5
09 25.04 ЮЗ 2 20 км 9/8 1000 м
[Sc Ac trans Ci sp]
+15.6 -8.8 18 +16 +17 1005.7 976.3
12 25.04 С 1
{10}
20 км 9/8 600 м
[Cb cap Ac lent Ci sp]
+13.7 -7.3 23 +14 +15 1005.0 975.4 +15.9
15 25.04 З 2 н/о 9/9 600 м
[Cb cap]
+8.7 -4.7 38 +8 +8 1006.2 976.0
18 25.04 ЮЗ 3 н/о 9/8 600 м
[Cb cap Ac lent]
+9.6 +0.5 53 +8 +8 1006.5 976.5
21 25.04 З 2 н/о 8/6 600 м
[Cb cap Ac lent Ci sp]
+4.8 +0.4 73 +2 +2 1008.1 977.5
00 26.04 ЮЗ 5 20 км 9/6 600 м
[Cb cap Ac lent Ci sp]
+8.6 +0.5 57 +5 +6 1007.3 977.2 +3.2

 

Местоположение метеостанции Ирбейское (Красноярский край, Россия): широта 55.63 долгота 95.47 высота над уровнем моря 252 м.

В архиве по умолчанию представлена погода в Ирбейском за последнюю неделю. Архивные данные за месяц целиком и за предыдущие месяцы, начиная с января 2011 года, Вы можете получить, выбрав интересующий диапазон дат из раскрывающегося списка и нажав кнопку "Ввод!".


*Определитесь, кто Вы:
робот инопланетянин человек

Внимание! Время в таблицах - всемирное. Для получения местного времени необходимо прибавить поправку, которая равна 7 ч.

Смотрите также архив погоды в соседних городах и на ближайших метеорологических станциях:

Погода в Агинском (Красноярский край, Россия) (56 км)
Погода в Солянке (Красноярский край, Россия) (61 км)
Погода в Канске (Красноярский край, Россия) (64 км)
Погода в Уяре (Красноярский край, Россия) (74 км)
Погода в Шалинском (Красноярский край, Россия) (108 км)
Погода в Абане (Красноярский край, Россия) (124 км)
Погода в Дзержинском (Красноярский край, Россия) (137 км)
Погода в Железногорске (Красноярский край, Россия) (140 км)
Погода в Анастасино (Красноярский край, Россия) (144 км)
Погода в Тайшете (Иркутская область, Россия) (162 км)

Пояснения к столбцам:

Ветер - указаны скорость ветра в м/с - средняя за 10 мин, порывы в срок и между сроками (в фигурных скобках) и направление, откуда дует ветер: С - северный, СВ - северо-восточный, В - восточный, ЮВ - юго-восточный, Ю - южный, ЮЗ - юго-западный, З - западный, СЗ - северо-западный.
Видимость - горизонтальная дальность видимости в метрах или километрах. При видимости от 1 до 10 км при отсутствии осадков обычно наблюдается дымка, при ухудшении видимости до 1 км и менее - туман. В сухую погоду видимость может ухудшаться дымом, пылью или мглою.
Явления - указаны атмосферные явления, наблюдавшиеся в срок или в последний час перед сроком; фигурными скобками обозначены явления, наблюдавшиеся между сроками (за 1-3 часа до срока); квадратными скобками обозначены град или гололедные отложения с указанием их диаметра в мм.
Облачность - указаны через наклонную черту общая и нижняя облачность в баллах и высота нижней границы облаков в метрах; квадратными скобками обозначены формы облаков: Ci - перистые, Cs - перисто-слоистые, Cc - перисто-кучевые, Ac - высококучевые, As - высокослоистые, Sc - слоисто-кучевые, Ns - слоисто-дождевые, Cu - кучевые, Cb - кучево-дождевые. Подробнее классификацию облаков см. в Атласе облаков (PDF).
T - Температура воздуха - температура, измеренная на высоте 2 м над землей.
Td - Температура точки росы - температура, при понижении до которой содержащийся в воздухе водяной пар достигнет насыщения.
f - Относительная влажность воздуха - влажноcть воздуха, измеренная на высоте 2 м над землей.
Te - Эффективная температура - температура, которую ощущает одетый по сезону человек в тени. Характеристика душности погоды. При расчете учитывается влияние влажности воздуха и скорости ветра на теплоощущения человека.
Tes - Эффективная температура на солнце - температура, которую ощущает человек, с поправкой на солнечный нагрев. Характеристика знойности погоды. Зависит от высоты солнца над горизонтом, облачности и скорости ветра. Ночью, в пасмурную погоду, а также при ветре 12 м/с и более поправка равна нулю.
P - Атмосферное давление - приведенное к уровню моря атмосферное давление.
Po - Атмосферное давление - измеренное на уровне метеостанции атмосферное давление.
Tmin - Минимальная температура - минимум температуры воздуха на высоте 2 м над землей.
Tmax - Максимальная температура - максимум температуры воздуха на высоте 2 м над землей.
R - Количество осадков - Количество выпавших осадков за период времени, мм. При наведении курсора мыши на число - период времени, за который выпало указанное количество осадков.
R24 - Количество осадков - Количество выпавших осадков за 24 часа, мм.
S - Снежный покров - Высота снежного покрова, см. При наведении курсора мыши на число - состояние снежного покрова и степень покрытия местности в баллах.